カタログに戻る

GORIZONT 15

運用中通信GEO
NORAD 19017·PAYLOAD·🇷🇺 Russia

打ち上げ Mar 31, 1988 から Baikonur Cosmodrome

Loading…

TLE

最新Source: Space-Track

元期: Sep 14, 2026, 14:21 UTC

1 19017U 88028A   26257.59841444 -.00000126  00000-0  00000-0 0  9995
2 19017  12.6051 330.4703 0033815 199.5074 156.2865  0.97828486120378

AllMySatでGORIZONT 15をリアルタイム追跡

Download on the App Store